HELLAS-SAT 2

Last updated on Sun Jun 21 2026 00:03:03 GMT+0000 (Coordinated Universal Time)

1 27811U 03020A 26170.96224390 -.00000092 00000+0 00000+0 0 9995 2 27811 7.3623 67.8529 0002617 28.2464 148.4599 1.00271497 42873
UTC large
Height (km)
Speed (km/s)
/
Latitude / Longitude
Inclination (degrees)
Orbital Period (minutes)
Azimuth
Elevation
Range (km)
Doppler Factor

Next 0 passes for location: London (51.5072 / 0.1276)

No passes found over London.
HELLAS-SAT 2